TimeCDT,TemperatureF,Dew PointF,Humidity,Sea Level PressureIn,VisibilityMPH,Wind Direction,Wind SpeedMPH,Gust SpeedMPH,PrecipitationIn,Events,Conditions,WindDirDegrees,DateUTC
12:54 AM,75.0,69.1,82,29.91,10.0,South,6.9,-,N/A,,Clear,170,2013-09-09 05:54:00
1:54 AM,73.9,69.1,85,29.91,8.0,South,4.6,-,N/A,,Clear,170,2013-09-09 06:54:00
2:54 AM,73.9,70.0,87,29.90,4.0,South,6.9,-,N/A,,Clear,180,2013-09-09 07:54:00
3:54 AM,73.9,71.1,91,29.90,6.0,South,6.9,-,N/A,,Partly Cloudy,170,2013-09-09 08:54:00
4:54 AM,73.9,70.0,87,29.88,6.0,SSE,6.9,-,N/A,,Mostly Cloudy,160,2013-09-09 09:54:00
5:54 AM,73.0,70.0,90,29.89,5.0,South,9.2,-,N/A,,Clear,170,2013-09-09 10:54:00
6:45 AM,73.0,70.0,90,29.91,2.5,South,10.4,-,N/A,,Clear,180,2013-09-09 11:45:00
6:54 AM,73.0,70.0,90,29.89,2.5,South,8.1,-,N/A,,Clear,190,2013-09-09 11:54:00
7:15 AM,73.0,70.0,90,29.91,3.0,South,6.9,-,N/A,,Clear,190,2013-09-09 12:15:00
7:24 AM,73.0,70.0,90,29.91,3.0,South,9.2,-,N/A,,Partly Cloudy,190,2013-09-09 12:24:00
7:54 AM,73.9,70.0,87,29.90,4.0,South,9.2,-,N/A,,Partly Cloudy,190,2013-09-09 12:54:00
8:54 AM,78.1,70.0,76,29.90,6.0,SSW,9.2,-,N/A,,Haze,210,2013-09-09 13:54:00
9:54 AM,82.0,71.1,69,29.90,8.0,SW,10.4,-,N/A,,Clear,220,2013-09-09 14:54:00
10:54 AM,87.1,71.1,59,29.89,5.0,Variable,6.9,-,N/A,,Haze,0,2013-09-09 15:54:00
11:54 AM,91.0,70.0,50,29.88,10.0,South,10.4,-,N/A,,Clear,190,2013-09-09 16:54:00
12:54 PM,93.0,69.1,45,29.87,10.0,SW,8.1,-,N/A,,Clear,230,2013-09-09 17:54:00
1:54 PM,97.0,68.0,39,29.86,10.0,WSW,10.4,-,N/A,,Clear,240,2013-09-09 18:54:00
2:54 PM,96.1,69.1,41,29.85,10.0,SSW,9.2,-,N/A,,Clear,210,2013-09-09 19:54:00
3:54 PM,97.0,69.1,40,29.84,10.0,SSW,12.7,-,N/A,,Clear,200,2013-09-09 20:54:00
4:54 PM,96.1,69.1,41,29.84,10.0,SW,16.1,-,N/A,,Clear,230,2013-09-09 21:54:00
5:54 PM,93.9,71.1,47,29.85,10.0,SSW,12.7,-,N/A,,Clear,210,2013-09-09 22:54:00
6:54 PM,90.0,71.1,54,29.86,10.0,SSW,10.4,-,N/A,,Clear,210,2013-09-09 23:54:00
7:54 PM,87.1,72.0,61,29.87,10.0,SSW,10.4,-,N/A,,Clear,200,2013-09-10 00:54:00
8:54 PM,84.9,73.0,67,29.89,10.0,SSW,10.4,-,N/A,,Clear,210,2013-09-10 01:54:00
9:54 PM,82.9,73.0,72,29.90,10.0,SSW,8.1,-,N/A,,Clear,200,2013-09-10 02:54:00
10:54 PM,80.1,72.0,76,29.91,9.0,South,5.8,-,N/A,,Clear,190,2013-09-10 03:54:00
11:54 PM,77.0,72.0,84,29.92,8.0,SSW,5.8,-,N/A,,Clear,200,2013-09-10 04:54:00